Regional Weather Roundup
Issued by NWS

Home | Current Version | Previous Version | Graphics & Text | Print | Product List | Glossary On
Versions: 1 2 3 4 5 6 7 8 9 10 11 12 13 14 15 16 17 18 19 20 21 22 23 24 25 26 27 28 29 30 31 32 33 34 35 36 37 38 39 40 41 42 43 44 45 46 47 48 49 50
000
ASUS45 KBOU 030510
RWRCO

WEATHER ROUNDUP FOR COLORADO
NATIONAL WEATHER SERVICE PUEBLO CO
1100 PM MDT SUN AUG 02 2015

NOTE: "FAIR" INDICATES FEW OR NO CLOUDS BELOW 12000 FEET WITH NO
SIGNIFICANT WEATHER AND/OR OBSTRUCTIONS TO VISIBILITY.

COZ001>005-013-030-031-030600-
...NORTHWEST COLORADO...

CITY           SKY/WX    TMP DP  RH WIND       PRES   REMARKS
CRAIG          CLOUDY    62  32  32 S10       30.18R
HAYDEN         CLOUDY    63  50  63 E7        30.20R
MEEKER         CLOUDY    64  51  62 CALM      30.23F
MOUNT WERNER   NOT AVBL
STEAMBOAT SPGS FAIR      59  51  75 CALM      30.22R
WALDEN         FAIR      59  41  51 S5        30.30S
$$

COZ006>008-011-030600-
...WEST CENTRAL VALLEYS...

CITY           SKY/WX    TMP DP  RH WIND       PRES   REMARKS
GRAND JUNCTION CLOUDY    66  56  70 E15       30.10F
MONTROSE       CLOUDY    63  59  87 CALM      30.20R
EAGLE          CLOUDY    63  52  67 SW7       30.26R
RIFLE          LGT RAIN  62  59  90 SE5       30.20F
DELTA          NOT AVBL
NUCLA          FAIR      63  61  94 S3        30.21R
$$

COZ017>023-064>068-030600-
...SOUTHWEST COLORADO...

CITY           SKY/WX    TMP DP  RH WIND       PRES   REMARKS
DURANGO        CLOUDY    60  54  80 CALM      30.26R
CORTEZ         MOCLDY    65  60  84 SW7       30.19R
PAGOSA SPRINGS CLOUDY    58  53  84 W10       30.32R THUNDER
TELLURIDE      CLOUDY    53  52  97 CALM      30.40S
WOLF CREEK PAS NOT AVBL
$$

COZ009-010-012-014-032>034-037-058>063-030600-
...CENTRAL COLORADO...

CITY           SKY/WX    TMP DP  RH WIND       PRES   REMARKS
ASPEN          LGT RAIN  55  53  93 CALM      30.33F
BUENA VISTA    LGT RAIN  55  52  90 NW3       30.38F
COPPER MTN     CLOUDY    52  36  54 S21G26    30.59F
BERTHOUD PASS  CLOUDY    41  32  70 SE16      30.64F
COTTONWOOD PAS LGT RAIN  52  48  87 N3        30.49S
GUNNISON       CLOUDY    57  54  88 N7        30.37S
KREMMLING      CLOUDY    64  41  42 W7        30.28S
LEADVILLE      RAIN      47  47 100 CALM      30.48F FOG
MONARCH PASS   FOG       43  41  93 SW7       30.71F VSB<1/4
SALIDA         NOT AVBL
NIWOT RIDGE    NOT AVBL
SUNLIGHT       RAIN      46  46 100 CALM      30.53F
WILKERSON PASS CLOUDY    46  37  71 CALM      30.59F
$$

COZ069>075-030600-
...SAN LUIS VALLEY/SANGRE DE CRISTO MOUNTAINS...

CITY           SKY/WX    TMP DP  RH WIND       PRES   REMARKS
ALAMOSA        CLOUDY    59  52  77 NW5       30.32R
LA VETA PASS   CLOUDY    46  43  87 MISG      30.49R
SAGUACHE       CLOUDY    55  54  94 NW6       30.35F
$$

COZ035-036-038>040-030600-
...NORTHERN COLORADO FRONT RANGE...

CITY           SKY/WX    TMP DP  RH WIND       PRES   REMARKS
DENVER INTL AP CLOUDY    72  48  42 SW7       30.11S
DMNS CITY PARK NOT AVBL
AURORA         MOCLDY    69  51  53 SW7       30.13S
FRONT RANGE AP NOT AVBL
ERIE MUNI ARPT FAIR      74  46  36 S8        30.07F
BOULDER MUN AP FAIR      73  46  38 S6        30.08S
CENTENNIAL     CLOUDY    71  48  43 SW12      30.13S
BROOMFIELD     NOT AVBL
LOVELAND       CLOUDY    72  48  43 S7        30.07R
LONGMONT       FAIR      70  54  57 CALM      30.08F
$$

COZ041-046-047-076>085-087-088-030600-
...PIKES PEAK/PALMER DIVIDE AND SOUTHERN FOOTHILLS...

CITY           SKY/WX    TMP DP  RH WIND       PRES   REMARKS
COLO. SPRINGS  CLOUDY    69  49  48 N5        30.19S
A. F. ACADEMY  CLOUDY    62  53  71 N3        30.20F
ELLICOTT       FAIR     N/A N/A N/A S7        30.17S
FALCON         FAIR      64  51  64 NW3       30.23F
FORT CARSON    CLOUDY    69  50  50 N8        30.15R
LIMON          MOCLDY    66  50  56 SE5       30.13S
MONUMENT HILL  NOT AVBL
TRINIDAD       CLOUDY    64  56  75 W15       30.14S
$$

COZ042>045-048>051-090-091-030600-
...NORTHEAST COLORADO...

CITY           SKY/WX    TMP DP  RH WIND       PRES   REMARKS
GREELEY ARPT   CLOUDY    70  52  52 SW6       30.06S
AKRON          MOCLDY    68  52  56 S8        30.07S
BURLINGTON     PTCLDY    72  57  59 SE13      30.06R
WRAY           FAIR      74  55  49 SE7       30.02R
STERLING       FAIR      73  55  53 S7        30.01F
HOLYOKE        FAIR      68  57  68 S6        30.02R
FORT MORGAN    FAIR      71  49  45 W5        30.06S
$$

COZ086-089-092>099-030600-
...SOUTHEAST COLORADO...

CITY           SKY/WX    TMP DP  RH WIND       PRES   REMARKS
PUEBLO         MOCLDY    77  52  41 W6        30.06S
LA JUNTA       CLOUDY    75  53  46 CALM      30.04S
LAMAR          CLOUDY    76  59  55 SE8       29.99R
SPRINGFIELD      N/A     71  63  75 CALM      30.05R
$$



USA.gov is the U.S. government's official web portal to all federal, state and local government web resources and services.